Location: Oberkirch
(48.5323°N, 8.0787°E)
Time: 16:59:22
(UTC+00:00)

SL-24 R/B - RUBIN 2 - Pass Details

Date: 18 February 2026
Orbit: 603 x 984 km, 64.6° (Epoch: 8 March)

Event Time Altitude Azimuth Distance (km) Brightness Sun altitude
Exits shadow 03:04:30 14° 17° (NNE) 1,788 6.3 -34.2°
Drops below altitude 10° 03:05:12 10° 23° (NNE) 2,004 6.6 -34.1°
Sets 03:07:42 0° 36° (NE) 2,886 7.8 -33.7°
